Regional Weather Roundup
Issued by NWS

Home | Current Version | Previous Version | Text Only | Print | Product List | Glossary Off
Versions: 1 2 3 4 5 6 7 8 9 10 11 12 13 14 15 16 17 18 19 20 21 22 23 24 25 26 27 28 29 30 31 32 33 34 35 36 37 38 39 40 41 42 43 44 45 46 47 48 49 50

000
ASUS43 KLMK 290110
RWRKY
KENTUCKY REGIONAL WEATHER ROUNDUP
NATIONAL WEATHER SERVICE LOUISVILLE KY
800 PM EST WED JAN 28 2015

NOTE "FAIR" INDICATES FEW OR NO CLOUDS BELOW 12,000 FEET
WITH NO SIGNIFICANT WEATHER AND/OR OBSTRUCTIONS TO VISIBILITY.

KYZ001>023-026-027-061>063-070>075-290200-
WESTERN AND SOUTH CENTRAL KENTUCKY

CITY           SKY/WX    TMP DP  RH WIND       PRES   REMARKS
PADUCAH        CLEAR     44  29  55 SE9       30.06F
HENDERSON      CLEAR     39  23  52 SE8       30.11F WCI  34
OWENSBORO      CLEAR     38  23  55 SE8       30.15F WCI  32
HOPKINSVILLE   PTCLDY    44  26  48 SE6       30.14F
BOWLING GREEN  CLEAR     35  23  61 E5        30.20F WCI  31
GLASGOW        CLEAR     35  18  51 SE3       30.20S
$$

KYZ024-025-028>034-038-045-046-053-290200-
NORTH CENTRAL KENTUCKY

CITY           SKY/WX    TMP DP  RH WIND       PRES   REMARKS
LOUISVILLE/SDF PTCLDY    35  17  47 SE8       30.20F WCI  29
LOUISVILLE/LOU PTCLDY    36  15  42 SE5       30.21F WCI  32
FORT KNOX      PTCLDY    34  16  46 E8        30.17F WCI  28
$$

KYZ035>037-039>044-047>052-055>060-089>105-290200-
NORTHEAST KENTUCKY

CITY           SKY/WX    TMP DP  RH WIND       PRES   REMARKS
LEXINGTON      CLEAR     31  19  61 SE7       30.23F WCI  24
COVINGTON      CLOUDY    31  20  63 SE8       30.23S WCI  23
FRANKFORT      CLEAR     32  19  58 SE3       30.22S
$$

KYZ054-064>069-076>088-106>120-290200-
SOUTHEAST KENTUCKY

CITY           SKY/WX    TMP DP  RH WIND       PRES   REMARKS
JACKSON        CLEAR     31  18  58 VRB5      30.24F WCI  26
LONDON         CLEAR     32  19  58 CALM      30.23F
SOMERSET       CLEAR     32  18  55 SE3       30.25S
MIDDLESBORO    CLEAR     30  24  76 CALM      30.26S
MONTICELLO     CLEAR     30  22  72 CALM      30.25F
$$



USA.gov is the U.S. government's official web portal to all federal, state and local government web resources and services.